When you browse on this site, cookies collect data to enhance your experience and personalize the content and advertising you see.
Visit our Privacy Policy to learn more. By continuing to use the site, you agree to this use of cookies and data.
  • In Netherlands
  • List of Countries
  • For 7 days
  • Water Temperature
  • Satellite Maps
  • Weather Map
  • Weather Widgets
  • user-avatar
    Login

    Hourly Weather Leicester

    Today, 20 June, Thursday

    Time Temperature Precipitation Wind Pressure Humidity
    00:00 +13°C° 0 mm 2 mps 750 mmHg 81%
    01:00 +12°C° 0 mm 2 mps 750 mmHg 84%
    02:00 +10°C° 0 mm 2 mps 750 mmHg 87%
    03:00 +9°C° 0 mm 2 mps 750 mmHg 89%
    04:00 +9°C° 0 mm 3 mps 750 mmHg 89%
    05:00 +10°C° 0 mm 3 mps 751 mmHg 88%
    06:00 +10°C° 0 mm 3 mps 751 mmHg 87%
    07:00 +12°C° 0 mm 4 mps 751 mmHg 85%
    08:00 +13°C° 0 mm 4 mps 751 mmHg 82%
    09:00 +14°C° 0 mm 4 mps 752 mmHg 79%
    10:00 +15°C° 0.2 mm 4 mps 752 mmHg 78%
    11:00 +15°C° 0.2 mm 5 mps 752 mmHg 77%
    12:00 +15°C° 0.2 mm 5 mps 752 mmHg 76%
    13:00 +15°C° 0.3 mm 5 mps 752 mmHg 76%
    14:00 +15°C° 0.3 mm 5 mps 752 mmHg 75%
    15:00 +16°C° 0.3 mm 5 mps 752 mmHg 75%
    16:00 +15°C° 0.1 mm 4 mps 752 mmHg 75%
    17:00 +15°C° 0.1 mm 4 mps 753 mmHg 76%
    18:00 +16°C° 0.1 mm 3 mps 753 mmHg 77%
    19:00 +13°C° 0 mm 3 mps 753 mmHg 79%
    20:00 +12°C° 0 mm 3 mps 754 mmHg 81%
    21:00 +10°C° 0 mm 3 mps 754 mmHg 83%
    22:00 +9°C° 0 mm 3 mps 755 mmHg 85%
    23:00 +9°C° 0 mm 2 mps 755 mmHg 87%

    Tomorrow, 21 June, Friday

    Time Temperature Precipitation Wind Pressure Humidity
    00:00 +8°C° 0 mm 2 mps 755 mmHg 89%
    01:00 +8°C° 0 mm 2 mps 755 mmHg 90%
    02:00 +7°C° 0 mm 2 mps 756 mmHg 91%
    03:00 +7°C° 0 mm 2 mps 756 mmHg 92%
    04:00 +8°C° 0 mm 3 mps 756 mmHg 91%
    05:00 +9°C° 0 mm 3 mps 756 mmHg 90%
    06:00 +10°C° 0 mm 3 mps 757 mmHg 89%
    07:00 +11°C° 0 mm 3 mps 757 mmHg 83%
    08:00 +13°C° 0 mm 3 mps 757 mmHg 78%
    09:00 +14°C° 0 mm 3 mps 758 mmHg 73%
    10:00 +16°C° 0 mm 3 mps 758 mmHg 70%
    11:00 +17°C° 0 mm 3 mps 758 mmHg 67%
    12:00 +17°C° 0 mm 3 mps 758 mmHg 64%
    13:00 +17°C° 0.1 mm 3 mps 758 mmHg 66%
    14:00 +17°C° 0.1 mm 3 mps 758 mmHg 68%
    15:00 +17°C° 0.1 mm 2 mps 759 mmHg 69%
    16:00 +17°C° 0.1 mm 2 mps 759 mmHg 71%
    17:00 +17°C° 0.1 mm 2 mps 759 mmHg 72%
    18:00 +18°C° 0.1 mm 1 mps 759 mmHg 74%
    19:00 +15°C° 0 mm 1 mps 759 mmHg 77%
    20:00 +14°C° 0 mm 1 mps 760 mmHg 81%
    21:00 +12°C° 0 mm 1 mps 760 mmHg 84%
    22:00 +11°C° 0 mm 1 mps 760 mmHg 85%
    23:00 +10°C° 0 mm 0 mps 760 mmHg 85%

    Day after tomorrow, 22 June, Saturday

    Time Temperature Precipitation Wind Pressure Humidity
    00:00 +9°C° 0 mm 0 mps 760 mmHg 85%
    01:00 +9°C° 0 mm 0 mps 760 mmHg 86%
    02:00 +8°C° 0 mm 0 mps 760 mmHg 86%
    03:00 +8°C° 0 mm 0 mps 760 mmHg 87%
    04:00 +9°C° 0 mm 0 mps 760 mmHg 86%
    05:00 +10°C° 0 mm 0 mps 760 mmHg 85%
    06:00 +11°C° 0 mm 0 mps 760 mmHg 84%
    07:00 +14°C° 0 mm 1 mps 761 mmHg 80%
    08:00 +15°C° 0 mm 1 mps 761 mmHg 76%
    09:00 +18°C° 0 mm 1 mps 761 mmHg 71%
    10:00 +18°C° 0 mm 2 mps 760 mmHg 69%
    11:00 +18°C° 0 mm 2 mps 760 mmHg 66%
    12:00 +19°C° 0 mm 2 mps 760 mmHg 64%
    13:00 +19°C° 0.1 mm 3 mps 760 mmHg 67%
    14:00 +19°C° 0.1 mm 3 mps 759 mmHg 71%
    15:00 +19°C° 0.1 mm 3 mps 759 mmHg 75%
    16:00 +19°C° 0.1 mm 3 mps 759 mmHg 77%
    17:00 +19°C° 0.1 mm 3 mps 759 mmHg 79%
    18:00 +18°C° 0.1 mm 3 mps 759 mmHg 81%
    19:00 +17°C° 0 mm 3 mps 759 mmHg 85%
    20:00 +14°C° 0 mm 3 mps 759 mmHg 88%
    21:00 +13°C° 0 mm 3 mps 760 mmHg 92%
    22:00 +12°C° 0 mm 3 mps 760 mmHg 92%
    23:00 +11°C° 0 mm 3 mps 759 mmHg 92%

    23 June, Sunday

    Time Temperature Precipitation Wind Pressure Humidity
    00:00 +10°C° 0 mm 3 mps 759 mmHg 93%
    01:00 +10°C° 0 mm 3 mps 759 mmHg 93%
    02:00 +10°C° 0 mm 2 mps 759 mmHg 93%
    03:00 +9°C° 0 mm 2 mps 759 mmHg 93%
    04:00 +10°C° 0 mm 3 mps 759 mmHg 93%
    05:00 +11°C° 0 mm 3 mps 759 mmHg 93%
    06:00 +12°C° 0 mm 3 mps 759 mmHg 93%
    07:00 +13°C° 0 mm 3 mps 759 mmHg 91%
    08:00 +15°C° 0 mm 4 mps 759 mmHg 89%
    09:00 +17°C° 0 mm 4 mps 759 mmHg 87%
    10:00 +18°C° 0 mm 4 mps 759 mmHg 85%
    11:00 +20°C° 0 mm 5 mps 759 mmHg 82%
    12:00 +21°C° 0 mm 5 mps 759 mmHg 79%
    13:00 +20°C° 0.1 mm 5 mps 759 mmHg 81%
    14:00 +20°C° 0.1 mm 5 mps 758 mmHg 83%
    15:00 +19°C° 0.1 mm 5 mps 758 mmHg 84%
    16:00 +19°C° 0 mm 5 mps 758 mmHg 85%
    17:00 +19°C° 0 mm 5 mps 758 mmHg 86%
    18:00 +19°C° 0 mm 5 mps 758 mmHg 87%
    19:00 +17°C° 0 mm 5 mps 758 mmHg 89%
    20:00 +16°C° 0 mm 5 mps 758 mmHg 91%
    21:00 +15°C° 0 mm 5 mps 758 mmHg 93%
    22:00 +15°C° 0.3 mm 5 mps 758 mmHg 93%
    23:00 +15°C° 0.3 mm 5 mps 758 mmHg 92%

    24 June, Monday

    Time Temperature Precipitation Wind Pressure Humidity
    00:00 +15°C° 0.3 mm 5 mps 757 mmHg 92%
    01:00 +15°C° 0.2 mm 5 mps 757 mmHg 93%
    02:00 +15°C° 0.2 mm 5 mps 757 mmHg 93%
    03:00 +15°C° 0.2 mm 4 mps 756 mmHg 94%
    04:00 +15°C° 0.7 mm 5 mps 756 mmHg 94%
    05:00 +16°C° 0.7 mm 5 mps 756 mmHg 95%
    06:00 +16°C° 0.7 mm 5 mps 756 mmHg 95%
    07:00 +18°C° 0.9 mm 4 mps 756 mmHg 94%
    08:00 +19°C° 0.9 mm 4 mps 756 mmHg 94%
    09:00 +20°C° 0.9 mm 3 mps 756 mmHg 93%
    10:00 +22°C° 0.5 mm 3 mps 757 mmHg 90%
    11:00 +23°C° 0.5 mm 4 mps 757 mmHg 86%
    12:00 +26°C° 0.5 mm 4 mps 757 mmHg 82%
    13:00 +26°C° 0.8 mm 4 mps 757 mmHg 81%
    14:00 +26°C° 0.8 mm 4 mps 757 mmHg 80%
    15:00 +26°C° 0.8 mm 4 mps 757 mmHg 79%
    16:00 +25°C° 0.1 mm 3 mps 757 mmHg 82%
    17:00 +24°C° 0.1 mm 3 mps 757 mmHg 84%
    18:00 +23°C° 0.1 mm 2 mps 757 mmHg 87%
    19:00 +23°C° 0 mm 2 mps 757 mmHg 88%
    20:00 +22°C° 0 mm 1 mps 758 mmHg 89%
    21:00 +21°C° 0 mm 1 mps 758 mmHg 90%
    22:00 +21°C° 0 mm 1 mps 758 mmHg 92%
    23:00 +19°C° 0 mm 2 mps 758 mmHg 94%

    25 June, Tuesday

    Time Temperature Precipitation Wind Pressure Humidity
    00:00 +19°C° 0 mm 2 mps 758 mmHg 96%
    01:00 +19°C° 0 mm 3 mps 757 mmHg 95%
    02:00 +19°C° 0 mm 4 mps 757 mmHg 95%
    03:00 +19°C° 0 mm 4 mps 757 mmHg 95%
    04:00 +19°C° 0 mm 4 mps 757 mmHg 94%
    05:00 +19°C° 0 mm 4 mps 756 mmHg 94%
    06:00 +19°C° 0 mm 4 mps 756 mmHg 93%
    07:00 +20°C° 0 mm 5 mps 756 mmHg 91%
    08:00 +22°C° 0 mm 5 mps 756 mmHg 89%
    09:00 +23°C° 0 mm 6 mps 756 mmHg 87%
    10:00 +24°C° 0 mm 6 mps 756 mmHg 85%
    11:00 +26°C° 0 mm 6 mps 756 mmHg 83%
    12:00 +28°C° 0 mm 6 mps 756 mmHg 81%
    13:00 +28°C° 0 mm 6 mps 755 mmHg 80%
    14:00 +28°C° 0 mm 6 mps 755 mmHg 79%
    15:00 +29°C° 0 mm 6 mps 755 mmHg 79%
    16:00 +28°C° 0.3 mm 5 mps 755 mmHg 82%
    17:00 +28°C° 0.3 mm 4 mps 755 mmHg 85%
    18:00 +27°C° 0.3 mm 3 mps 755 mmHg 88%
    19:00 +26°C° 1 mm 3 mps 756 mmHg 90%
    20:00 +24°C° 1 mm 3 mps 756 mmHg 92%
    21:00 +22°C° 1 mm 3 mps 757 mmHg 95%
    22:00 +21°C° 0 mm 2 mps 757 mmHg 95%
    23:00 +20°C° 0 mm 2 mps 757 mmHg 96%
    Show more